Orbital Elements at Epoch 2459000.5 (2020-May-31.0) TDB
Reference: JPL 20 (heliocentric ecliptic J2000)
Element | Value | Uncertainty (1-sigma) | Units |
e | .2329845182931259 | 3.1832e-08 | |
a | 2.356713023494419 | 8.9943e-09 | au |
q | 1.807635374960435 | 7.7993e-08 | au |
i | 7.266944488106649 | 4.5131e-06 | deg |
node | 297.8772614462673 | 2.7864e-05 | deg |
peri | 90.02537113271015 | 3.002e-05 | deg |
M | 233.6470595467229 | 1.1557e-05 | deg |
tp | 2459464.311307094180 (2021-Sep-06.81130709) | 4.4011e-05 | TDB |
period | 1321.473564088902 3.62 | 7.565e-06 2.071e-08 | d yr |
n | .2724231568326562 | 1.5595e-09 | deg/d |
Q | 2.905790672028402 | 1.109e-08 | au |
|
| | Orbit Determination Parameters
Additional Information
|